Location: Browne Barr
(41.2080°N, 111.9480°W)
Time: 00:41:42
(UTC+00:00)

ISS - Visible Passes

Search period start: 19 May 2021 00:00
Search period end: 29 May 2021 00:00
Orbit: 417 x 422 km, 51.6° (Epoch: 18 May)

Date Brightness Start Highest point End Pass type
(mag) Time Alt. Az. Time Alt. Az. Time Alt. Az.
19 May -0.9 04:38:28 10° WNW 04:41:01 20° NNW 04:43:34 10° NNE visible
19 May -0.6 06:16:54 10° NNW 06:18:47 14° N 06:20:42 10° NE visible
19 May -0.7 07:53:30 10° NW 07:53:58 13° NNW 07:53:58 13° NNW visible
20 May -1.3 03:50:32 10° W 03:53:22 25° NNW 03:56:13 10° NE visible
20 May -0.6 05:29:11 10° NW 05:31:04 14° N 05:32:57 10° NNE visible
20 May -0.9 07:06:10 10° NNW 07:07:49 19° N 07:07:49 19° N visible
21 May -0.7 04:41:21 10° NW 04:43:20 15° N 04:45:20 10° NNE visible
21 May -1.1 06:18:48 10° NNW 06:21:09 17° NNE 06:21:44 17° NNE visible
22 May -0.8 03:53:23 10° NW 03:55:37 16° NNW 03:57:52 10° NNE visible
22 May -0.8 05:31:22 10° NNW 05:33:27 15° N 05:35:31 10° NE visible
22 May -0.9 07:07:46 10° NW 07:08:38 16° NW 07:08:38 16° NW visible
23 May -0.8 04:43:49 10° NNW 04:45:43 14° N 04:47:36 10° NE visible
23 May -1.5 06:20:25 10° NW 06:22:38 25° N 06:22:38 25° N visible
24 May -0.8 03:56:07 10° NW 03:57:59 14° N 03:59:50 10° NNE visible
24 May -1.5 05:33:04 10° NNW 05:35:44 21° NNE 05:36:39 19° NE visible
24 May -0.6 07:09:30 10° NW 07:09:35 11° NW 07:09:35 11° NW visible
25 May -1.1 04:45:42 10° NNW 04:48:03 17° NNE 04:50:24 10° ENE visible
25 May -1.5 06:22:02 10° NW 06:23:38 25° NW 06:23:38 25° NW visible
26 May -1.0 03:58:15 10° NNW 04:00:19 15° N 04:02:24 10° NE visible
26 May -2.5 05:34:39 10° NW 05:37:41 38° NNE 05:37:41 38° NNE visible
27 May -2.0 04:47:17 10° NW 04:50:14 27° NNE 04:51:47 19° ENE visible
27 May -1.1 06:23:55 10° WNW 06:24:44 16° WNW 06:24:44 16° WNW visible
28 May -1.6 03:59:55 10° NNW 04:02:34 21° NNE 04:05:14 10° ENE visible
28 May -2.9 05:36:21 10° NW 05:38:51 47° WNW 05:38:51 47° WNW visible
